Find Qianfan 05-18

NORAD ID: 63176 Int'l Des: 2025-046 Owner: YUANX Country: CN Constellation: spacesail operational
LEOCIRCULARPOLAR

Current View

Loading 3D Globe...

About Qianfan 05-18

Description loading...

Upcoming Passes

Passes for default location (London). Set your location on the main map for personalized predictions.

Altitude History

Loading altitude history...

Two-Line Element Set

1 63176U 25046T 26146.54858770 .00000112 00000-0 15414-3 0 9995
2 63176 88.9693 302.9268 0013690 16.7375 343.4225 13.51010878 69671
Epoch: May 26, 2026 • Age: 8 hours

Current Status

Altitude 1079.5 km
Velocity 7.31 km/s
Sub-Earth Point 16.81°N, 78.07°W
Launch Date Mar 11, 2025
Age 1.2 years
Type internet

Technical Details

Classification Payload
Mass 267.00 kg
Dry Mass 267.00 kg
Total Mass 267.00 kg
Length 0.30 m
Diameter 3.00 m
Span 10.00 m
Shape Box+pan
Manufacturer GESIH
Bus Type Qianfan
Phase Status In Orbit
Owner/State YUANX/CN

Most Searched